Location: Caltech
(34.1382°N, 118.1253°W)
Time: 00:57:26
(UTC-07:00)

Cosmos 1980 Rocket - Visible Passes

Search period start: 25 August 2016 00:00
Search period end: 04 September 2016 00:00
Orbit: 828 x 852 km, 71.0° (Epoch: 24 August)

Date Brightness Start Highest point End Pass type
(mag) Time Alt. Az. Time Alt. Az. Time Alt. Az.
25 Aug 2.6 21:08:26 38° E 21:08:26 38° E 21:13:30 10° NE visible
25 Aug 4.1 22:50:00 19° W 22:52:20 25° WNW 22:56:59 10° N visible
26 Aug 2.7 20:47:33 10° SSE 20:52:38 36° ESE 20:57:46 10° NE visible
26 Aug 4.1 22:31:55 10° WSW 22:36:39 27° WNW 22:41:25 10° N visible
27 Aug 2.8 20:32:00 10° SSE 20:37:00 33° ESE 20:42:02 10° NE visible
27 Aug 4.0 22:16:06 10° WSW 22:20:57 29° WNW 22:25:51 10° N visible
28 Aug 2.9 20:16:29 10° SSE 20:21:22 31° ESE 20:26:18 10° NE visible
28 Aug 3.9 22:00:19 10° WSW 22:05:16 31° WNW 22:10:16 10° N visible
29 Aug 3.0 20:00:58 10° SSE 20:05:45 29° ESE 20:10:34 10° NE visible
29 Aug 3.8 21:44:32 10° SW 21:49:35 33° WNW 21:54:41 10° N visible
30 Aug 3.1 19:45:28 10° SSE 19:50:07 27° ESE 19:54:48 10° NE visible
30 Aug 3.8 21:28:46 10° SW 21:33:54 35° WNW 21:39:05 10° N visible
31 Aug 3.7 21:13:01 10° SW 21:18:14 37° WNW 21:23:29 10° N visible
01 Sep 3.6 20:57:15 10° SW 21:02:33 40° WNW 21:07:54 10° N visible
02 Sep 3.4 05:54:34 10° N 06:00:05 49° ENE 06:05:32 10° SE visible
02 Sep 3.5 20:41:31 10° SW 20:46:53 43° WNW 20:52:17 10° N visible
03 Sep 3.5 05:38:58 10° N 05:44:26 46° ENE 05:49:49 10° SE visible
03 Sep 3.4 20:25:47 10° SW 20:31:12 46° WNW 20:36:41 10° N visible
